Location: Newark
(58.8333°N, 23.5833°E)
Time: 21:42:37
(UTC+00:00)

Envisat - Visible Passes

Search period start: 18 October 2019 00:00
Search period end: 28 October 2019 00:00
Orbit: 764 x 766 km, 98.1° (Epoch: 18 October)

Date Brightness Start Highest point End Pass type
(mag) Time Alt. Az. Time Alt. Az. Time Alt. Az.
18 Oct 6.1 04:06:31 10° NE 04:09:59 18° E 04:13:27 10° SE visible
18 Oct 4.8 17:09:15 10° SSW 17:13:53 34° W 17:18:32 10° NNW visible
19 Oct 3.6 16:31:50 10° S 16:36:52 60° WSW 16:41:56 10° NNW visible
19 Oct 6.1 18:14:31 10° WSW 18:17:00 13° W 18:19:30 10° NW visible
20 Oct 5.6 04:31:33 10° NNE 04:35:51 26° E 04:40:06 10° SSE visible
20 Oct 3.0 15:54:57 10° SSE 16:00:02 80° ENE 16:05:09 10° NNW visible
20 Oct 5.4 17:35:37 10° SW 17:39:40 24° W 17:43:45 10° NW visible
21 Oct 6.2 03:55:35 10° NE 03:58:33 15° E 04:01:31 10° ESE visible
21 Oct 4.4 16:57:44 10° SSW 17:02:31 40° W 17:07:21 10° NNW visible
22 Oct 3.3 16:20:29 10° S 16:25:34 71° WSW 16:30:41 10° NNW visible
22 Oct 5.9 18:02:27 10° WSW 18:05:33 16° W 18:08:39 10° NW visible
23 Oct 5.8 04:20:27 10° NE 04:24:27 23° E 04:28:26 10° SE visible
23 Oct 3.0 15:43:44 10° SSE 15:48:47 68° ENE 15:53:51 10° NNW visible
23 Oct 5.1 17:23:56 10° SSW 17:28:16 28° W 17:32:38 10° NNW visible
24 Oct 6.3 03:44:48 10° NE 03:47:06 13° E 03:49:23 10° ESE visible
24 Oct 4.1 16:46:17 10° S 16:51:11 48° W 16:56:08 10° NNW visible
24 Oct 6.3 18:30:38 10° W 18:31:32 10° WNW 18:32:25 10° WNW visible
25 Oct 3.1 16:09:11 10° SSE 16:14:17 83° WSW 16:19:25 10° NNW visible
25 Oct 5.7 17:50:33 10° SW 17:54:06 19° W 17:57:42 10° NW visible
26 Oct 6.0 04:09:23 10° NE 04:13:02 19° E 04:16:39 10° SE visible
26 Oct 3.1 15:32:33 10° SE 15:37:33 58° ENE 15:42:33 10° NNW visible
26 Oct 4.8 17:12:20 10° SSW 17:16:53 32° W 17:21:28 10° NNW visible
27 Oct 6.5 03:34:28 10° ENE 03:35:37 11° ENE 03:36:47 10° E visible
27 Oct 3.7 16:34:51 10° S 16:39:51 56° W 16:44:54 10° NNW visible
27 Oct 6.1 18:17:53 10° WSW 18:20:03 13° W 18:22:14 10° NW visible
